[[{"header":{"parameterUnit":"m.s-1","parameterCategory":2,"la1":30.2991,"la2":30.254,"lo1":-89.0895,"lo2":-89.0444,"dy":0.0017,"dx":0.0017,"nx":28,"ny":28,"refTime":"2023-07-22T09:00:00:Z","depth":"0","parameterNumber":2,"parameterNumberName":"U-component_of_CURRENTS"},"data":[0,0,0,0,0,0,0,0,0,0,0,0,0,0,0,0,0,0,0,0,0,0,0,0,0,0,0,0,0,0,0,0,0,0,0,0,0,0,0,0,0,0,0,0,0,0,0,0,0,0,0,0,0,0,0,0,0,0,0.2561,0.2561,0,0.2597,0.2598,0.2599,0.2693,0.2695,0.2696,0.2698,0.2709,0.2707,0.2706,0,0,0,0,0,0,0,0,0,0,0,0,0,0.2587,0.2586,0.2561,0.2561,0.2561,0.2597,0.2598,0.2599,0.2693,0.2695,0.2696,0.2698,0.2709,0.2708,0.2706,0,0,0,0,0,0,0,0,0,0,0,0,0,0.2599,0.2586,0.2561,0.2609,0.2613,0.2597,0.2598,0.26,0.2692,0.2695,0.2697,0.2699,0.2709,0.2708,0.2706,0.2649,0,0,0.2701,0.27,0,0,0,0,0,0,0,0,0.2598,0.2599,0.2602,0.2605,0.261,0.2639,0.2611,0.2613,0.2692,0.2667,0.2698,0.27,0.2678,0.2679,0.2688,0.2649,0.265,0.2701,0.27,0.2699,0.2698,0,0,0,0,0,0,0,0.2597,0.2598,0.2581,0.2601,0.2606,0.2632,0.2637,0.2613,0.2662,0.267,0.2675,0.2671,0.2681,0.2689,0.2689,0.265,0.2701,0.2699,0.2698,0.2697,0.272,0.2722,0,0,0,0,0,0,0.2579,0.2596,0.2579,0.2581,0.2604,0.263,0.2635,0.2631,0.2663,0.2669,0.2669,0.2675,0.2691,0.2691,0.2689,0.2724,0.2699,0.2697,0.2696,0.2718,0.272,0.2722,0,0,0,0,0,0,0.258,0.2577,0.2578,0.2586,0.2587,0.2626,0.2621,0.2631,0.2654,0.2662,0.2669,0.2683,0.2693,0.2692,0.2737,0.2721,0.2696,0.2695,0.2717,0.2719,0.2721,0.2728,0,0,0,0,0,0,0.258,0.2577,0.2583,0.2584,0.2586,0.2562,0.2619,0.2629,0.2644,0.2653,0.2676,0.2679,0.2695,0.274,0.2735,0.2719,0.2694,0.2714,0.2718,0.2721,0.2726,0.2731,0.2735,0,0,0,0,0,0.2581,0.2562,0.2582,0.2581,0.2587,0.256,0.2563,0.2602,0.2642,0.2636,0.2709,0.2679,0.2755,0.2741,0.2734,0.2717,0.2713,0.2717,0.272,0.2724,0.273,0.2735,0,0,0,0,0,0,0.2604,0.2569,0.2592,0.2575,0.2568,0.2574,0.2567,0.2598,0.2647,0.2666,0.2702,0.271,0.2756,0.2736,0.2719,0.2739,0.2725,0.2728,0.273,0.2735,0.274,0.2726,0.2692,0,0,0,0,0,0.2601,0.2567,0.2557,0.2549,0.2533,0.2553,0.2554,0.2574,0.2607,0.2631,0.2658,0.27,0.2757,0.2751,0.2788,0.2768,0.278,0.2756,0.2761,0.2764,0.2754,0.2798,0.2804,0.2734,0.2734,0.2734,0,0,0.2616,0.2587,0.2579,0.2548,0.2545,0.2533,0.2561,0.2543,0.2568,0.2618,0.2665,0.2721,0.277,0.2801,0.2809,0.2777,0.2794,0.2769,0.2771,0.2759,0.2802,0.2808,0.2814,0.2737,0.2736,0.2736,0,0,0.2596,0.2588,0.2547,0.2532,0.2504,0.2511,0.2505,0.2507,0.254,0.258,0.2663,0.272,0.2748,0.28,0.283,0.2865,0.2844,0.2861,0.2828,0.2871,0.2876,0.2881,0.2913,0.2921,0.2827,0.2827,0.2827,0,0.2625,0.258,0.2538,0.25,0.2501,0.2502,0.249,0.251,0.2546,0.2575,0.2594,0.2723,0.2753,0.2831,0.2862,0.2869,0.2891,0.2801,0.2874,0.2879,0.2884,0.2916,0.2924,0.2828,0.2828,0.2828,0.2827,0,0.2564,0.2557,0.2525,0.2488,0.2475,0.2456,0.2466,0.2479,0.2518,0.2552,0.2634,0.2706,0.2774,0.2794,0.2839,0.2889,0.2896,0.2902,0.2853,0.2891,0.2923,0.2931,0.2829,0.2829,0.2828,0.2828,0,0,0.256,0.2502,0.2497,0.2498,0.2473,0.2454,0.2478,0.2499,0.2526,0.257,0.2622,0.273,0.2756,0.2796,0.2848,0.2872,0.2935,0.2887,0.2889,0.2904,0.3027,0.2923,0.2922,0.2954,0.2955,0.2956,0.3038,0,0.2543,0.2495,0.2467,0.2462,0.2447,0.2458,0.2477,0.25,0.2535,0.2576,0.265,0.2721,0.276,0.2798,0.2834,0.2936,0.2956,0.2912,0.3,0.3002,0.2893,0.2928,0.2703,0.2747,0.3046,0.3048,0.3049,0,0.2474,0.247,0.2457,0.2461,0.2451,0.2451,0.2475,0.2495,0.2546,0.2573,0.2634,0.2696,0.2783,0.2793,0.2934,0.2907,0.296,0.3012,0.3017,0.2916,0.2912,0.2758,0.2751,0.2624,0.3061,0.306,0.3059,0,0.2455,0.2448,0.2449,0.245,0.2457,0.2463,0.2468,0.2497,0.2507,0.2572,0.2587,0.2696,0.275,0.2847,0.2952,0.2955,0.3081,0.3098,0.305,0.3044,0.2865,0.2839,0.2725,0.3168,0.3168,0.3168,0.3168,0,0.2416,0.2421,0.2445,0.2445,0.2448,0.2454,0.2448,0.2467,0.2494,0.2497,0.2583,0.2616,0.2765,0.2852,0.2948,0.3017,0.308,0.3046,0.3055,0.2862,0.2836,0.2727,0.2694,0.3171,0.317,0.317,0.3169,0,0.2362,0.2389,0.2392,0.2423,0.2427,0.2422,0.2406,0.2393,0.244,0.245,0.2471,0.2572,0.2688,0.2813,0.2968,0.299,0.2965,0.3081,0.2835,0.2812,0.2628,0.2604,0.2472,0.2434,0.3047,0.3045,0.3043,0,0.2301,0.2302,0.2351,0.2338,0.2344,0.2341,0.2315,0.2355,0.2342,0.2418,0.2417,0.2532,0.259,0.2761,0.2826,0.294,0.2878,0.2768,0.2722,0.2571,0.2555,0.2499,0.2475,0.2506,0.25,0.2495,0.2491,0,0.218,0.2219,0.2231,0.2233,0.2218,0.2201,0.2184,0.2184,0.2233,0.2249,0.2302,0.2368,0.2506,0.2514,0.2619,0.2656,0.256,0.2668,0.2574,0.2159,0.2029,0.2009,0.251,0.2447,0.2452,0.2455,0.2457,0.2459,0.2065,0.2065,0.2082,0.209,0.207,0.2046,0.2013,0.201,0.2003,0.2007,0.214,0.2144,0.2194,0.2315,0.2345,0.2152,0.2301,0.2057,0.2059,0.2034,0.191,0.2303,0.2207,0.221,0.2213,0.2215,0.2217,0,0.1917,0.1926,0.191,0.1917,0.1862,0.1907,0.1893,0.1853,0.1822,0.1818,0.1845,0.1782,0.1739,0.176,0.1627,0.1539,0.1524,0.1478,0.1334,0.1366,0.1745,0.163,0.1324,0.1324,0.1324,0.1325,0.1325,0.1325,0.1811,0.1776,0.1819,0.1719,0.1708,0.1634,0.1629,0.1588,0.1564,0.1431,0.1334,0.1372,0.1333,0.1148,0.0971,0.0968,0.0937,0.0842,0.0991,0.1202,0.1256,0.1307,0.1189,0.0796,0.0795,0.0505,0.0503,0.05]},{"header":{"parameterUnit":"m.s-1","parameterCategory":2,"la1":30.2991,"la2":30.254,"lo1":-89.0895,"lo2":-89.0444,"dy":0.0017,"dx":0.0017,"nx":28,"ny":28,"refTime":"2023-07-22T09:00:00:Z","depth":"0","parameterNumber":3,"parameterNumberName":"V-component_of_CURRENTS"},"data":[0,0,0,0,0,0,0,0,0,0,0,0,0,0,0,0,0,0,0,0,0,0,0,0,0,0,0,0,0,0,0,0,0,0,0,0,0,0,0,0,0,0,0,0,0,0,0,0,0,0,0,0,0,0,0,0,0,0,-0.0462,-0.046,0,-0.0382,-0.0381,-0.0381,-0.0383,-0.0384,-0.0384,-0.0384,-0.0432,-0.0433,-0.0434,0,0,0,0,0,0,0,0,0,0,0,0,0,-0.0524,-0.0524,-0.0462,-0.046,-0.0459,-0.0382,-0.0381,-0.0381,-0.0383,-0.0384,-0.0384,-0.0385,-0.0432,-0.0433,-0.0434,0,0,0,0,0,0,0,0,0,0,0,0,0,-0.0483,-0.0524,-0.0462,-0.0445,-0.0442,-0.0382,-0.0381,-0.0381,-0.0383,-0.0384,-0.0384,-0.0385,-0.0431,-0.0433,-0.0434,-0.0429,0,0,-0.0438,-0.0438,0,0,0,0,0,0,0,0,-0.0486,-0.0482,-0.0449,-0.0446,-0.0443,-0.0387,-0.042,-0.0401,-0.0383,-0.0413,-0.0385,-0.0385,-0.0423,-0.0425,-0.0417,-0.0431,-0.0433,-0.0438,-0.0439,-0.0439,-0.044,0,0,0,0,0,0,0,-0.0489,-0.0485,-0.0438,-0.0447,-0.0443,-0.0409,-0.0405,-0.0416,-0.0424,-0.0411,-0.0409,-0.0388,-0.0424,-0.0416,-0.0419,-0.0434,-0.0438,-0.0439,-0.044,-0.044,-0.0432,-0.0431,0,0,0,0,0,0,-0.0488,-0.0488,-0.044,-0.0435,-0.0458,-0.0407,-0.0403,-0.041,-0.0421,-0.042,-0.0387,-0.0388,-0.0414,-0.0417,-0.0421,-0.0403,-0.0439,-0.044,-0.0441,-0.0433,-0.0432,-0.0431,0,0,0,0,0,0,-0.049,-0.0486,-0.0443,-0.0452,-0.0443,-0.0405,-0.0412,-0.0408,-0.0396,-0.04,-0.0404,-0.0379,-0.0414,-0.0419,-0.0436,-0.0406,-0.0441,-0.0442,-0.0435,-0.0433,-0.0432,-0.0377,0,0,0,0,0,0,-0.0493,-0.0488,-0.0503,-0.0453,-0.0442,-0.0398,-0.0411,-0.0406,-0.0379,-0.038,-0.0395,-0.0399,-0.0415,-0.0434,-0.0437,-0.0408,-0.0443,-0.0436,-0.0434,-0.0432,-0.038,-0.0374,-0.0369,0,0,0,0,0,-0.0496,-0.0503,-0.0505,-0.0498,-0.0462,-0.0396,-0.0388,-0.0367,-0.0378,-0.0363,-0.0388,-0.0399,-0.0424,-0.0435,-0.0439,-0.0409,-0.0437,-0.0434,-0.0432,-0.0383,-0.0375,-0.0369,0,0,0,0,0,0,-0.0538,-0.0501,-0.0503,-0.0501,-0.0449,-0.0393,-0.0377,-0.0362,-0.0367,-0.0375,-0.0399,-0.0405,-0.0404,-0.0417,-0.0429,-0.0401,-0.0426,-0.0425,-0.0387,-0.038,-0.0375,-0.0345,-0.0444,0,0,0,0,0,-0.0554,-0.0555,-0.0498,-0.0496,-0.047,-0.0426,-0.0402,-0.0376,-0.0361,-0.0363,-0.0377,-0.0391,-0.0395,-0.0399,-0.0408,-0.04,-0.0395,-0.038,-0.0374,-0.0369,-0.0347,-0.0326,-0.0316,-0.0424,-0.0424,-0.0424,0,0,-0.0564,-0.0548,-0.0546,-0.0505,-0.047,-0.042,-0.0415,-0.0362,-0.033,-0.0369,-0.036,-0.0376,-0.0391,-0.038,-0.0379,-0.039,-0.0335,-0.0366,-0.0362,-0.0342,-0.0322,-0.0311,-0.0302,-0.0422,-0.0423,-0.0423,0,0,-0.0557,-0.0573,-0.0553,-0.0515,-0.045,-0.0415,-0.0396,-0.0338,-0.0326,-0.0307,-0.0329,-0.0327,-0.034,-0.0335,-0.0337,-0.0303,-0.0309,-0.0305,-0.0248,-0.0228,-0.0219,-0.021,-0.0189,-0.0179,-0.0298,-0.0298,-0.0298,0,-0.058,-0.0555,-0.0531,-0.0493,-0.0464,-0.0411,-0.0366,-0.0333,-0.0292,-0.0275,-0.0299,-0.0287,-0.031,-0.0277,-0.0267,-0.0287,-0.0279,-0.0276,-0.022,-0.0211,-0.0204,-0.0184,-0.0174,-0.0295,-0.0295,-0.0296,-0.0296,0,-0.0524,-0.0525,-0.0505,-0.0455,-0.0415,-0.0368,-0.0307,-0.0271,-0.0257,-0.0222,-0.0191,-0.0213,-0.0198,-0.0204,-0.0229,-0.0177,-0.0189,-0.0219,-0.0236,-0.0189,-0.0172,-0.0162,-0.0291,-0.0292,-0.0293,-0.0293,0,0,-0.0537,-0.0484,-0.0476,-0.0469,-0.0398,-0.0355,-0.0295,-0.0219,-0.0169,-0.0143,-0.0093,-0.0096,-0.009,-0.009,-0.0111,-0.0095,-0.0046,-0.0128,-0.0129,-0.0103,0.0006,0.0041,0.0054,-0.0068,-0.0066,-0.0064,-0.0003,0,-0.0509,-0.045,-0.0423,-0.0379,-0.0352,-0.0304,-0.0251,-0.0177,-0.0127,-0.0066,-0.0048,-0.0016,-0.0049,-0.0043,-0.0024,-0.0043,-0.0018,-0.0059,-0.0046,-0.0044,-0.0016,0.0068,0.0141,0.0206,0.0006,0.0007,0.0009,0,-0.0451,-0.0438,-0.0384,-0.0362,-0.034,-0.0301,-0.0209,-0.0152,-0.0044,-0.0005,0.0055,0.0073,0.0118,0.0068,0.0101,0.0076,0.0057,0.004,0.0041,0.0067,0.001,0.0127,0.0231,0.0231,0.0023,0.0022,0.0021,0,-0.0445,-0.0414,-0.0381,-0.037,-0.0313,-0.0287,-0.0246,-0.0135,-0.0071,0.0038,0.01,0.0157,0.0185,0.0185,0.0175,0.0137,0.0207,0.0142,0.0164,0.0165,0.023,0.0235,0.0344,0.0175,0.0175,0.0175,0.0175,0,-0.0422,-0.041,-0.0387,-0.0371,-0.0335,-0.0298,-0.0218,-0.0151,-0.0041,0.0058,0.0122,0.0207,0.0215,0.0261,0.0226,0.0254,0.0254,0.0211,0.0199,0.0251,0.0256,0.0258,0.0229,0.0177,0.0177,0.0176,0.0176,0,-0.0411,-0.0387,-0.0372,-0.034,-0.033,-0.0302,-0.0217,-0.0137,-0.0044,0.0088,0.0126,0.0253,0.0328,0.0344,0.0354,0.0329,0.0373,0.0332,0.0401,0.0397,0.0403,0.0373,0.0485,0.0578,0.0373,0.0374,0.0375,0,-0.0388,-0.0373,-0.0354,-0.0331,-0.0324,-0.0281,-0.0218,-0.0137,-0.0047,0.0124,0.0195,0.0311,0.0428,0.0489,0.0487,0.0492,0.046,0.0521,0.0462,0.046,0.0416,0.0394,0.0463,0.0565,0.0568,0.057,0.0572,0,-0.0368,-0.0359,-0.0352,-0.0304,-0.0264,-0.02,-0.0126,-0.0064,0.0063,0.0179,0.0335,0.0431,0.0536,0.0622,0.0642,0.0625,0.0586,0.0565,0.0554,0.0595,0.0588,0.0653,0.0456,0.0591,0.0589,0.0588,0.0587,0.0586,-0.0365,-0.0343,-0.0311,-0.0272,-0.0215,-0.011,-0.0044,0.0055,0.0193,0.0371,0.0427,0.0586,0.068,0.0749,0.0743,0.0766,0.0729,0.0734,0.0703,0.0684,0.0777,0.0632,0.075,0.0749,0.0748,0.0748,0.0747,0,-0.0336,-0.03,-0.0261,-0.0196,-0.0119,-0.0088,0.0041,0.0127,0.0284,0.0428,0.0565,0.0728,0.0835,0.0865,0.09,0.0895,0.0921,0.0881,0.0868,0.0938,0.081,0.0821,0.0972,0.0972,0.0972,0.0972,0.0972,0.0972,-0.0304,-0.026,-0.023,-0.0114,-0.0062,0.0067,0.0146,0.0263,0.0376,0.0562,0.0682,0.0775,0.0872,0.0884,0.0929,0.0943,0.0987,0.0974,0.0996,0.0866,0.0849,0.0833,0.0839,0.099,0.099,0.1194,0.1195,0.1196]}],[{"header":{"parameterUnit":"m.s-1","parameterCategory":2,"la1":30.2991,"la2":30.254,"lo1":-89.0895,"lo2":-89.0444,"dy":0.0017,"dx":0.0017,"nx":28,"ny":28,"refTime":"2023-07-22T09:00:00:Z","depth":"2","parameterNumber":2,"parameterNumberName":"U-component_of_CURRENTS"},"data":[0,0,0,0,0,0,0,0,0,0,0,0,0,0,0,0,0,0,0,0,0,0,0,0,0,0,0,0,0,0,0,0,0,0,0,0,0,0,0,0,0,0,0,0,0,0,0,0,0,0,0,0,0,0,0,0,0,0,0.0527,0.0527,0,0.0601,0.0602,0.0604,0.0762,0.0764,0.0767,0.0769,0.0839,0.0839,0.0838,0,0,0,0,0,0,0,0,0,0,0,0,0,0.0213,0.022,0.0527,0.0527,0.0527,0.0601,0.0602,0.0604,0.0761,0.0764,0.0768,0.0771,0.0839,0.0839,0.0838,0,0,0,0,0,0,0,0,0,0,0,0,0,0.0331,0.0223,0.0527,0.061,0.0618,0.06,0.0602,0.0604,0.0761,0.0765,0.0768,0.0772,0.084,0.0839,0.0838,0.0755,0,0,0.0835,0.0835,0,0,0,0,0,0,0,0,0.0325,0.0344,0.0597,0.0604,0.0613,0.067,0.0517,0.0652,0.076,0.0713,0.0769,0.0774,0.0775,0.078,0.0795,0.0758,0.0761,0.0835,0.0835,0.0834,0.0834,0,0,0,0,0,0,0,0.0317,0.0339,0.0563,0.0597,0.0606,0.0537,0.0562,0.0542,0.0726,0.0718,0.0728,0.0724,0.0781,0.0795,0.0797,0.0762,0.0835,0.0835,0.0834,0.0834,0.0809,0.0809,0,0,0,0,0,0,0.0308,0.0334,0.056,0.0564,0.0468,0.054,0.0568,0.0653,0.0727,0.074,0.0721,0.0731,0.0795,0.0798,0.08,0.0849,0.0834,0.0834,0.0833,0.0809,0.0809,0.0809,0,0,0,0,0,0,0.0302,0.0331,0.0557,0.0439,0.0463,0.0544,0.0636,0.0652,0.0707,0.0728,0.0744,0.0762,0.0798,0.0801,0.0794,0.0848,0.0833,0.0833,0.0809,0.0809,0.0809,0.0855,0,0,0,0,0,0,0.0295,0.0331,0.0335,0.0442,0.0469,0.0537,0.0632,0.0651,0.0693,0.0709,0.0767,0.0776,0.0801,0.0795,0.0793,0.0847,0.0832,0.0809,0.0809,0.0809,0.0854,0.0856,0.0859,0,0,0,0,0,0.0285,0.0345,0.0338,0.0361,0.0496,0.0534,0.054,0.0611,0.0691,0.0684,0.0737,0.0777,0.0795,0.0792,0.0791,0.0846,0.081,0.0809,0.0809,0.0853,0.0856,0.0859,0,0,0,0,0,0,0.0215,0.0367,0.0364,0.0464,0.0463,0.0558,0.0594,0.0615,0.0655,0.0704,0.0743,0.0751,0.0782,0.0776,0.0773,0.0835,0.082,0.0819,0.0854,0.0857,0.086,0.0901,0.0831,0,0,0,0,0,0.0187,0.0275,0.0346,0.0396,0.0449,0.0508,0.0524,0.0561,0.0622,0.0651,0.0685,0.0733,0.0767,0.0782,0.0796,0.0793,0.0828,0.0834,0.0836,0.0839,0.0869,0.0941,0.0954,0.0807,0.0807,0.0807,0,0,0.0128,0.025,0.0266,0.0378,0.0445,0.0502,0.0539,0.06,0.0623,0.0642,0.0715,0.0733,0.0765,0.0795,0.0809,0.0804,0.0894,0.0838,0.0841,0.087,0.0942,0.0957,0.097,0.0807,0.0807,0.0807,0,0,0.0143,0.0235,0.0325,0.0364,0.045,0.0487,0.0507,0.0596,0.0634,0.0641,0.0702,0.0738,0.0764,0.0811,0.0839,0.0846,0.0904,0.086,0.0912,0.0981,0.0995,0.1008,0.1059,0.1076,0.0864,0.0864,0.0864,0,0.0074,0.022,0.0318,0.0438,0.0469,0.0504,0.0563,0.0596,0.063,0.0666,0.0674,0.0786,0.0789,0.0879,0.0889,0.0863,0.0904,0.0904,0.0989,0.1003,0.1015,0.1065,0.1083,0.0866,0.0866,0.0865,0.0865,0,0.0163,0.0253,0.0342,0.0506,0.0526,0.0587,0.0646,0.0666,0.0714,0.0742,0.0824,0.0832,0.0915,0.0914,0.0906,0.1005,0.1005,0.0987,0.0993,0.1034,0.1082,0.11,0.0869,0.0868,0.0868,0.0867,0,0,0.0286,0.035,0.0453,0.0431,0.0573,0.0602,0.068,0.0738,0.082,0.0839,0.0945,0.0986,0.1025,0.1056,0.106,0.1099,0.1193,0.1082,0.1085,0.1153,0.1352,0.1122,0.112,0.1202,0.1205,0.1208,0.1346,0,0.0368,0.0456,0.0547,0.0611,0.0627,0.0688,0.0748,0.0793,0.0858,0.0952,0.101,0.1105,0.1074,0.1126,0.1169,0.1192,0.1247,0.1158,0.1285,0.1289,0.1096,0.1134,0.1031,0.1125,0.1364,0.1367,0.137,0,0.0586,0.0577,0.0582,0.0579,0.0634,0.0673,0.0792,0.0837,0.0981,0.1051,0.1177,0.1237,0.1333,0.1285,0.1402,0.1354,0.137,0.1373,0.1378,0.1168,0.1093,0.1123,0.115,0.1401,0.1398,0.1396,0.1394,0,0.0613,0.0705,0.0643,0.065,0.0632,0.0684,0.0735,0.0874,0.0986,0.1133,0.1247,0.1369,0.1451,0.1507,0.1525,0.1487,0.1633,0.158,0.1401,0.1386,0.1323,0.1292,0.168,0.168,0.168,0.168,0.1679,0,0.0686,0.0754,0.0632,0.0591,0.0671,0.0653,0.0815,0.0906,0.1066,0.1204,0.1304,0.1433,0.1512,0.1603,0.1599,0.1554,0.1711,0.1428,0.141,0.1325,0.1295,0.155,0.1533,0.1685,0.1684,0.1683,0.1682,0,0.0809,0.0698,0.066,0.0589,0.0655,0.071,0.0933,0.1004,0.1143,0.1327,0.1389,0.1543,0.1619,0.1682,0.1758,0.1623,0.1615,0.1568,0.144,0.1397,0.1308,0.1292,0.1375,0.1368,0.1362,0.1357,0.1353,0,0.085,0.0794,0.0733,0.0735,0.0742,0.0855,0.0952,0.1089,0.116,0.1374,0.1424,0.1579,0.1594,0.1614,0.1512,0.1463,0.1573,0.1262,0.1121,0.1305,0.128,0.1273,0.1265,0.109,0.1084,0.1079,0.1075,0,0.0891,0.0869,0.075,0.0828,0.0872,0.0988,0.1091,0.1182,0.1271,0.1384,0.1455,0.1473,0.1452,0.1316,0.1212,0.1156,0.124,0.1144,0.1469,0.1111,0.1027,0.1004,0.1009,0.1032,0.1037,0.104,0.1042,0.1044,0.0931,0.0911,0.0759,0.0908,0.0954,0.1035,0.1126,0.1146,0.1256,0.1306,0.1329,0.125,0.1122,0.0875,0.0853,0.0863,0.0894,0.0804,0.0826,0.0852,0.0722,0.0623,0.0532,0.0534,0.0535,0.0536,0.0537,0,0.0895,0.0876,0.0907,0.0915,0.0999,0.1079,0.1159,0.1154,0.1176,0.1145,0.1117,0.0819,0.0648,0.0679,0.0583,0.0432,0.0509,0.0439,0.0586,0.0623,0.0658,0.0527,0.0282,0.0282,0.0282,0.0282,0,0,0.0795,0.0772,0.083,0.0941,0.1024,0.1077,0.1104,0.1076,0.1038,0.0927,0.0829,0.0625,0.0561,0.0395,0.0334,0.0362,0.0518,0.0334,0.0526,0.074,0.0777,0.0829,0.0659,0,0,0,0,0]},{"header":{"parameterUnit":"m.s-1","parameterCategory":2,"la1":30.2991,"la2":30.254,"lo1":-89.0895,"lo2":-89.0444,"dy":0.0017,"dx":0.0017,"nx":28,"ny":28,"refTime":"2023-07-22T09:00:00:Z","depth":"2","parameterNumber":3,"parameterNumberName":"V-component_of_CURRENTS"},"data":[0,0,0,0,0,0,0,0,0,0,0,0,0,0,0,0,0,0,0,0,0,0,0,0,0,0,0,0,0,0,0,0,0,0,0,0,0,0,0,0,0,0,0,0,0,0,0,0,0,0,0,0,0,0,0,0,0,0,0.0157,0.0159,0,0.0182,0.018,0.0179,0.0054,0.0052,0.005,0.0049,-0.0124,-0.0127,-0.013,0,0,0,0,0,0,0,0,0,0,0,0,0,0.018,0.0177,0.0157,0.0159,0.0162,0.0182,0.018,0.0178,0.0054,0.0052,0.005,0.0048,-0.0123,-0.0127,-0.013,0,0,0,0,0,0,0,0,0,0,0,0,0,0.0163,0.0176,0.0157,0.0118,0.0116,0.0182,0.018,0.0178,0.0054,0.0052,0.0049,0.0047,-0.0122,-0.0126,-0.0131,-0.011,0,0,-0.0145,-0.0147,0,0,0,0,0,0,0,0,0.0164,0.0159,0.0121,0.0121,0.0119,0.0131,0.0127,0.0079,0.0055,0.0055,0.0049,0.0046,-0.0041,-0.0052,-0.007,-0.0118,-0.0126,-0.0145,-0.0148,-0.015,-0.0151,0,0,0,0,0,0,0,0.0165,0.0159,0.0145,0.0124,0.0123,0.0162,0.0152,0.0117,-0.0,0.0055,0.0051,0.0089,-0.0047,-0.0066,-0.0076,-0.0128,-0.0145,-0.0149,-0.0152,-0.0154,-0.0187,-0.0185,0,0,0,0,0,0,0.0198,0.0159,0.0144,0.0148,0.0161,0.0164,0.0153,0.0112,0.0004,-0.0006,0.0091,0.0084,-0.0057,-0.007,-0.0082,-0.0044,-0.015,-0.0154,-0.0157,-0.0189,-0.0186,-0.0184,0,0,0,0,0,0,0.0197,0.0193,0.0144,0.0177,0.0175,0.0167,0.0122,0.0114,0.0092,0.0039,0.0018,0.008,-0.0059,-0.0076,-0.0087,-0.0053,-0.0157,-0.0161,-0.0191,-0.0188,-0.0185,0.0019,0,0,0,0,0,0,0.0196,0.019,0.0151,0.0176,0.0176,0.0192,0.0127,0.0117,0.013,0.0119,0.0023,0.0004,-0.0062,-0.0079,-0.0092,-0.0061,-0.0164,-0.0193,-0.0189,-0.0186,0.001,0.0029,0.0045,0,0,0,0,0,0.0195,0.0148,0.0146,0.0147,0.0124,0.0197,0.0197,0.0172,0.0133,0.0136,0.0087,0.0007,-0.0067,-0.008,-0.0096,-0.0065,-0.0195,-0.0191,-0.0186,0.0002,0.0025,0.0044,0,0,0,0,0,0,0.0157,0.0135,0.0132,0.0083,0.0153,0.0184,0.0167,0.0186,0.0149,0.0122,0.0046,0.0026,0.0028,-0.0043,-0.0056,-0.0067,-0.015,-0.0149,-0.0002,0.0019,0.0036,0.0033,-0.0168,0,0,0,0,0,0.0137,0.0091,0.0129,0.0121,0.0115,0.0148,0.0166,0.0187,0.0186,0.0163,0.011,0.0051,0.0037,0.0009,-0.0029,-0.0027,-0.0086,-0.0025,-0.0007,0.0008,-0.0005,-0.0036,-0.0022,-0.017,-0.017,-0.017,0,0,0.0166,0.0128,0.0126,0.0114,0.0121,0.0162,0.0141,0.0189,0.0243,0.0153,0.0142,0.0115,0.0055,0.0063,0.0054,0.0004,0.0028,0.0014,0.0028,0.0005,-0.003,-0.0015,-0.0003,-0.0167,-0.0168,-0.0168,0,0,0.0196,0.0112,0.0083,0.0109,0.0148,0.0181,0.0206,0.024,0.0235,0.0289,0.0233,0.024,0.0188,0.0168,0.0151,0.0239,0.0132,0.0213,0.0287,0.0261,0.0273,0.0282,0.027,0.0277,0.021,0.021,0.0211,0,0.0197,0.0169,0.0117,0.01,0.0131,0.0191,0.0229,0.0263,0.0317,0.0321,0.03,0.0284,0.0243,0.0273,0.0307,0.028,0.024,0.0223,0.0286,0.0293,0.0299,0.0284,0.0289,0.0221,0.022,0.0219,0.0218,0,0.0256,0.0206,0.0191,0.0171,0.0203,0.0258,0.0312,0.0339,0.0362,0.0414,0.0449,0.0433,0.0407,0.0423,0.0395,0.0427,0.0381,0.0327,0.0239,0.0327,0.0305,0.0307,0.0236,0.0232,0.0229,0.0226,0,0,0.0197,0.0229,0.0187,0.0219,0.0237,0.0294,0.0335,0.041,0.0448,0.0508,0.0546,0.0579,0.0568,0.0548,0.0527,0.0525,0.0574,0.045,0.0443,0.0449,0.0521,0.0576,0.0581,0.0526,0.0526,0.0526,0.0504,0,0.0222,0.0272,0.0241,0.031,0.0344,0.0355,0.0396,0.0475,0.0523,0.0572,0.0603,0.0632,0.062,0.0617,0.0628,0.0576,0.0578,0.0585,0.0421,0.0416,0.0464,0.0585,0.0481,0.0459,0.0505,0.0505,0.0505,0,0.0197,0.0244,0.0331,0.0384,0.0378,0.0427,0.0476,0.053,0.0594,0.0611,0.0656,0.0679,0.0716,0.068,0.0658,0.0657,0.0599,0.0569,0.0565,0.0534,0.0473,0.0366,0.0458,0.0505,0.0505,0.0505,0.0505,0,0.0213,0.0243,0.0344,0.0369,0.0464,0.0456,0.0484,0.0533,0.0541,0.0623,0.0651,0.0707,0.0716,0.0681,0.0652,0.0634,0.0618,0.0568,0.0572,0.0574,0.041,0.0399,0.0535,0.0535,0.0535,0.0535,0.0535,0,0.0225,0.0239,0.0362,0.042,0.0439,0.0491,0.0499,0.0509,0.0552,0.0601,0.0662,0.0717,0.071,0.0721,0.0671,0.0654,0.0622,0.0611,0.0582,0.0486,0.0482,0.0437,0.0426,0.0534,0.0534,0.0534,0.0534,0,0.0165,0.0279,0.0355,0.0467,0.0445,0.0454,0.042,0.0477,0.0505,0.0564,0.0585,0.0688,0.0725,0.073,0.0682,0.0676,0.0643,0.0625,0.054,0.0505,0.0609,0.0608,0.0638,0.064,0.0642,0.0643,0.0645,0,0.0164,0.0219,0.0322,0.0346,0.036,0.0362,0.0363,0.0393,0.0458,0.0564,0.0621,0.0688,0.0778,0.0776,0.0731,0.0684,0.0667,0.0584,0.0549,0.0656,0.0624,0.0621,0.0618,0.0409,0.0408,0.0407,0.0407,0,0.0126,0.0156,0.026,0.0275,0.0297,0.0316,0.034,0.0364,0.0474,0.0544,0.0673,0.0746,0.0785,0.0736,0.0706,0.0662,0.0599,0.0575,0.0672,0.0432,0.0447,0.0414,0.0416,0.0401,0.0401,0.0402,0.0402,0.0402,0.0061,0.0101,0.0228,0.0211,0.0247,0.0305,0.0317,0.042,0.0488,0.0614,0.0691,0.0763,0.0677,0.0621,0.0584,0.0562,0.0592,0.0527,0.0525,0.0524,0.0535,0.0555,0.0531,0.0532,0.0534,0.0535,0.0536,0,0.0049,0.01,0.0133,0.0213,0.0244,0.0248,0.0339,0.0405,0.0517,0.0601,0.0688,0.0581,0.0542,0.0489,0.0437,0.0441,0.0396,0.043,0.0324,0.033,0.0335,0.0333,0.0277,0.0277,0.0277,0.0277,0,0,0.0077,0.0136,0.0167,0.0205,0.0221,0.0287,0.0348,0.0427,0.0491,0.0556,0.0554,0.0548,0.0495,0.0364,0.0318,0.0313,0.0338,0.0312,0.051,0.0393,0.0399,0.0372,0.0374,0,0,0,0,0]}],[{"header":{"parameterUnit":"m.s-1","parameterCategory":2,"la1":30.2991,"la2":30.254,"lo1":-89.0895,"lo2":-89.0444,"dy":0.0017,"dx":0.0017,"nx":28,"ny":28,"refTime":"2023-07-22T09:00:00:Z","depth":"4","parameterNumber":2,"parameterNumberName":"U-component_of_CURRENTS"},"data":[0,0,0,0,0,0,0,0,0,0,0,0,0,0,0,0,0,0,0,0,0,0,0,0,0,0,0,0,0,0,0,0,0,0,0,0,0,0,0,0,0,0,0,0,0,0,0,0,0,0,0,0,0,0,0,0,0,0,-0.0915,-0.0916,0,-0.0929,-0.0929,-0.0929,-0.0971,-0.0972,-0.0973,-0.0974,-0.0927,-0.0925,-0.0923,0,0,0,0,0,0,0,0,0,0,0,0,0,-0.0847,-0.0848,-0.0915,-0.0916,-0.0916,-0.0929,-0.0929,-0.0929,-0.0971,-0.0972,-0.0974,-0.0975,-0.0928,-0.0925,-0.0923,0,0,0,0,0,0,0,0,0,0,0,0,0,-0.0868,-0.0848,-0.0915,-0.094,-0.0943,-0.0929,-0.0929,-0.0929,-0.0971,-0.0972,-0.0974,-0.0976,-0.0929,-0.0926,-0.0922,-0.0866,0,0,-0.0911,-0.091,0,0,0,0,0,0,0,0,-0.0867,-0.087,-0.0936,-0.0939,-0.0942,-0.0952,-0.0888,-0.0906,-0.097,-0.0957,-0.0974,-0.0976,-0.093,-0.0927,-0.0923,-0.0864,-0.0862,-0.0911,-0.0909,-0.0908,-0.0907,0,0,0,0,0,0,0,-0.0865,-0.0869,-0.0918,-0.0937,-0.094,-0.0924,-0.093,-0.0891,-0.0931,-0.0959,-0.0962,-0.0967,-0.0931,-0.0926,-0.0922,-0.0861,-0.0911,-0.0908,-0.0906,-0.0905,-0.0945,-0.0948,0,0,0,0,0,0,-0.0871,-0.0868,-0.0918,-0.0919,-0.091,-0.0925,-0.093,-0.0945,-0.0933,-0.0934,-0.0966,-0.0969,-0.0931,-0.0926,-0.092,-0.0989,-0.0908,-0.0904,-0.0902,-0.0942,-0.0946,-0.0949,0,0,0,0,0,0,-0.087,-0.0876,-0.0917,-0.0895,-0.09,-0.0925,-0.094,-0.0945,-0.0971,-0.0939,-0.0939,-0.0992,-0.0933,-0.0925,-0.0923,-0.0983,-0.0903,-0.09,-0.0938,-0.0943,-0.0948,-0.1039,0,0,0,0,0,0,-0.0868,-0.0875,-0.0881,-0.0896,-0.0902,-0.0939,-0.0939,-0.0944,-0.0971,-0.0976,-0.0961,-0.0957,-0.0933,-0.0928,-0.0919,-0.0976,-0.0897,-0.0934,-0.0941,-0.0946,-0.1032,-0.1046,-0.1059,0,0,0,0,0,-0.0865,-0.0875,-0.0882,-0.0888,-0.0912,-0.094,-0.0942,-0.0962,-0.0971,-0.099,-0.0983,-0.0959,-0.0962,-0.0926,-0.0915,-0.0973,-0.0931,-0.0939,-0.0946,-0.1026,-0.1044,-0.1058,0,0,0,0,0,0,-0.0851,-0.088,-0.0889,-0.0908,-0.0935,-0.0949,-0.097,-0.0975,-0.0983,-0.1003,-0.0963,-0.0958,-0.0991,-0.0966,-0.0928,-0.1011,-0.0957,-0.0962,-0.1022,-0.1038,-0.1051,-0.1075,-0.0894,0,0,0,0,0,-0.0848,-0.0866,-0.0894,-0.0912,-0.0936,-0.0954,-0.0966,-0.0991,-0.1001,-0.101,-0.0991,-0.0995,-0.1005,-0.1008,-0.1005,-0.1017,-0.1009,-0.1063,-0.1077,-0.1088,-0.1105,-0.1162,-0.1182,-0.0973,-0.0973,-0.0973,0,0,-0.0843,-0.0866,-0.0873,-0.091,-0.0938,-0.0968,-0.0968,-0.1018,-0.1042,-0.0998,-0.1022,-0.1027,-0.1019,-0.1056,-0.1072,-0.1044,-0.1138,-0.1097,-0.1106,-0.1117,-0.1172,-0.1192,-0.1209,-0.0978,-0.0977,-0.0976,0,0,-0.0855,-0.0878,-0.0903,-0.093,-0.0986,-0.1,-0.1022,-0.1057,-0.1082,-0.11,-0.1098,-0.1132,-0.1122,-0.1142,-0.1147,-0.1226,-0.1206,-0.1252,-0.1332,-0.1387,-0.1404,-0.1419,-0.1406,-0.1419,-0.126,-0.1261,-0.1261,0,-0.0848,-0.0882,-0.0914,-0.0952,-0.0981,-0.1019,-0.1061,-0.1081,-0.1106,-0.1137,-0.113,-0.1187,-0.1165,-0.1233,-0.1278,-0.1254,-0.1271,-0.1263,-0.1403,-0.1418,-0.1432,-0.1415,-0.1428,-0.1266,-0.1265,-0.1265,-0.1264,0,-0.087,-0.0909,-0.0937,-0.0991,-0.1029,-0.1076,-0.1122,-0.1156,-0.1188,-0.1217,-0.1302,-0.1296,-0.1342,-0.1356,-0.1334,-0.1446,-0.1419,-0.1408,-0.1355,-0.1458,-0.1433,-0.1445,-0.1273,-0.1272,-0.127,-0.1269,0,0,-0.0837,-0.0928,-0.0948,-0.0976,-0.106,-0.1091,-0.1156,-0.1223,-0.127,-0.1328,-0.1408,-0.1449,-0.149,-0.1503,-0.1507,-0.1557,-0.1643,-0.1544,-0.1544,-0.1517,-0.1744,-0.1507,-0.1496,-0.1679,-0.1682,-0.1685,-0.1674,0,-0.0849,-0.0933,-0.0973,-0.1038,-0.1086,-0.114,-0.1189,-0.1265,-0.1324,-0.1403,-0.148,-0.1579,-0.1536,-0.1611,-0.1642,-0.1671,-0.1688,-0.1645,-0.166,-0.1659,-0.1427,-0.1507,-0.1696,-0.1683,-0.1686,-0.1688,-0.1689,0,-0.0867,-0.0918,-0.1028,-0.1077,-0.1104,-0.1172,-0.1277,-0.1321,-0.1451,-0.1514,-0.1636,-0.17,-0.1823,-0.1776,-0.1845,-0.1836,-0.1797,-0.1788,-0.1787,-0.1546,-0.1446,-0.1569,-0.171,-0.1709,-0.1707,-0.1706,-0.1704,0,-0.088,-0.0939,-0.1039,-0.1067,-0.1153,-0.1235,-0.1292,-0.1411,-0.1465,-0.1667,-0.1749,-0.187,-0.197,-0.1992,-0.1937,-0.1947,-0.1963,-0.1963,-0.1689,-0.1669,-0.1843,-0.1827,-0.1984,-0.1984,-0.1984,-0.1984,-0.1984,0,-0.0874,-0.0943,-0.1072,-0.1141,-0.1214,-0.1295,-0.1424,-0.1477,-0.1623,-0.163,-0.1855,-0.1839,-0.2044,-0.2044,-0.1992,-0.1846,-0.1997,-0.171,-0.1666,-0.1876,-0.1865,-0.1848,-0.1833,-0.1984,-0.1984,-0.1984,-0.1984,0,-0.0894,-0.0985,-0.1089,-0.122,-0.126,-0.1349,-0.1495,-0.1536,-0.1714,-0.1742,-0.1839,-0.1927,-0.1879,-0.1961,-0.1959,-0.1883,-0.1801,-0.1686,-0.1865,-0.183,-0.1464,-0.1454,-0.1456,-0.1448,-0.1441,-0.1435,-0.143,0,-0.09,-0.1,-0.1169,-0.1205,-0.1292,-0.1425,-0.1476,-0.1614,-0.1584,-0.1639,-0.1565,-0.1662,-0.165,-0.1515,-0.1582,-0.1548,-0.1487,-0.1532,-0.1549,-0.146,-0.1418,-0.1419,-0.1418,-0.1419,-0.1418,-0.1416,-0.1414,0,-0.0908,-0.1045,-0.1104,-0.1209,-0.1292,-0.1315,-0.1356,-0.1357,-0.1379,-0.1537,-0.1312,-0.1336,-0.1241,-0.1259,-0.1287,-0.1213,-0.1598,-0.146,-0.1475,-0.1492,-0.1415,-0.1381,-0.1388,-0.139,-0.1394,-0.1396,-0.1397,0,-0.0913,-0.0938,-0.1056,-0.1094,-0.1171,-0.1123,-0.1211,-0.1099,-0.1122,-0.1123,-0.0963,-0.1004,-0.1067,-0.1058,-0.0992,-0.1025,-0.1015,-0.108,-0.1115,-0.1143,-0.1052,-0.091,-0.0698,0,0,0,0,0,-0.0825,-0.0815,-0.0888,-0.09,-0.0972,-0.1001,-0.1011,-0.1066,-0.1069,-0.085,-0.092,-0.0769,-0.0752,-0.0767,-0.0734,-0.0864,-0.1053,-0.0831,-0.1154,-0.1258,-0.1285,-0.121,0,0,0,0,0,0,-0.0782,-0.0814,-0.0821,-0.0711,-0.0692,-0.0717,-0.0746,-0.0768,-0.0633,-0.0663,-0.0637,-0.0709,-0.0693,-0.0721,-0.0697,-0.0716,-0.091,-0.0861,-0.086,-0.1242,-0.1267,-0.1289,-0.1222,0,0,0,0,0]},{"header":{"parameterUnit":"m.s-1","parameterCategory":2,"la1":30.2991,"la2":30.254,"lo1":-89.0895,"lo2":-89.0444,"dy":0.0017,"dx":0.0017,"nx":28,"ny":28,"refTime":"2023-07-22T09:00:00:Z","depth":"4","parameterNumber":3,"parameterNumberName":"V-component_of_CURRENTS"},"data":[0,0,0,0,0,0,0,0,0,0,0,0,0,0,0,0,0,0,0,0,0,0,0,0,0,0,0,0,0,0,0,0,0,0,0,0,0,0,0,0,0,0,0,0,0,0,0,0,0,0,0,0,0,0,0,0,0,0,0.0344,0.0345,0,0.0375,0.0375,0.0375,0.0422,0.0423,0.0424,0.0425,0.0427,0.0426,0.0425,0,0,0,0,0,0,0,0,0,0,0,0,0,0.0386,0.0384,0.0344,0.0345,0.0345,0.0375,0.0375,0.0375,0.0422,0.0423,0.0425,0.0426,0.0427,0.0426,0.0425,0,0,0,0,0,0,0,0,0,0,0,0,0,0.0384,0.0383,0.0344,0.0374,0.0378,0.0375,0.0375,0.0376,0.0422,0.0423,0.0425,0.0427,0.0428,0.0426,0.0425,0.0383,0,0,0.042,0.042,0,0,0,0,0,0,0,0,0.0384,0.0382,0.0369,0.0372,0.0376,0.0399,0.0391,0.0377,0.0421,0.0402,0.0425,0.0427,0.0416,0.0415,0.0414,0.0383,0.0383,0.042,0.0419,0.0419,0.0418,0,0,0,0,0,0,0,0.0384,0.0381,0.0353,0.037,0.0374,0.0408,0.0408,0.0389,0.0396,0.0404,0.0408,0.0416,0.0417,0.0415,0.0414,0.0383,0.042,0.0419,0.0418,0.0417,0.0415,0.0415,0,0,0,0,0,0,0.0381,0.0381,0.0352,0.0355,0.0388,0.0406,0.0406,0.0388,0.0397,0.0401,0.0414,0.0418,0.0417,0.0416,0.0414,0.04,0.0419,0.0417,0.0416,0.0414,0.0415,0.0416,0,0,0,0,0,0,0.0381,0.0377,0.0351,0.0373,0.0373,0.0403,0.0382,0.0387,0.0393,0.0406,0.0409,0.0416,0.0418,0.0416,0.0406,0.0399,0.0417,0.0415,0.0413,0.0414,0.0415,0.0349,0,0,0,0,0,0,0.0381,0.0376,0.0371,0.0371,0.0371,0.0341,0.0381,0.0387,0.0397,0.0402,0.0408,0.041,0.0419,0.0408,0.0404,0.0398,0.0414,0.0412,0.0413,0.0415,0.035,0.0348,0.0345,0,0,0,0,0,0.0382,0.0364,0.037,0.0368,0.0359,0.034,0.0341,0.0369,0.0395,0.0383,0.0401,0.041,0.0417,0.0406,0.0402,0.0395,0.0411,0.0413,0.0415,0.0351,0.0348,0.0346,0,0,0,0,0,0,0.038,0.0367,0.0374,0.0353,0.0345,0.0349,0.0354,0.0364,0.0368,0.0379,0.0396,0.0397,0.0394,0.0406,0.0394,0.0407,0.0424,0.0425,0.0378,0.0375,0.0373,0.0369,0.0413,0,0,0,0,0,0.0375,0.0356,0.0349,0.033,0.033,0.034,0.0343,0.0348,0.0352,0.0356,0.0356,0.0377,0.0395,0.0394,0.0402,0.0384,0.0434,0.039,0.0388,0.0385,0.0385,0.0474,0.048,0.0422,0.0422,0.0422,0,0,0.0366,0.0362,0.0349,0.033,0.0334,0.0303,0.0345,0.0335,0.0312,0.0352,0.0324,0.0357,0.0391,0.0386,0.0387,0.0393,0.0426,0.0388,0.0385,0.0386,0.0477,0.0482,0.0487,0.0423,0.0423,0.0422,0,0,0.033,0.0336,0.0305,0.029,0.0286,0.0287,0.028,0.027,0.0278,0.0248,0.0297,0.0325,0.0315,0.0353,0.0372,0.0361,0.0413,0.0374,0.0348,0.0434,0.0439,0.0445,0.0498,0.0509,0.037,0.037,0.037,0,0.0323,0.0276,0.0294,0.0257,0.0243,0.0272,0.0226,0.0228,0.0212,0.0218,0.0231,0.0281,0.0302,0.0337,0.0346,0.0352,0.0408,0.0346,0.043,0.0436,0.0443,0.0497,0.0509,0.0367,0.0368,0.0368,0.0368,0,0.0247,0.0218,0.0202,0.016,0.0148,0.0114,0.0116,0.0104,0.0119,0.0129,0.0158,0.0205,0.0243,0.0265,0.0296,0.036,0.0386,0.0416,0.0429,0.0444,0.05,0.0515,0.0363,0.0364,0.0365,0.0366,0,0,0.0204,0.0155,0.0152,0.0115,0.0091,0.0066,0.0041,0.0028,0.0019,0.0043,0.0043,0.0112,0.0168,0.0198,0.0259,0.0337,0.0424,0.0395,0.0401,0.0434,0.0606,0.0418,0.0416,0.048,0.0483,0.0485,0.062,0,0.0139,0.0056,0.005,-0.0032,-0.0076,-0.0061,-0.009,-0.0089,-0.0072,-0.0069,0.003,0.0063,0.0136,0.017,0.0256,0.0401,0.0463,0.0384,0.06,0.0605,0.0425,0.0426,0.0493,0.0631,0.0634,0.0637,0.0639,0,0.0073,0.0019,-0.0061,-0.0128,-0.0143,-0.0182,-0.0206,-0.023,-0.0192,-0.0168,-0.0097,-0.0025,0.0106,0.0153,0.0401,0.0357,0.0466,0.0569,0.0577,0.0434,0.0442,0.0622,0.0665,0.0663,0.0661,0.0659,0.0658,0,0.0052,-0.0051,-0.0111,-0.0141,-0.021,-0.0234,-0.0261,-0.0251,-0.0261,-0.0207,-0.0198,-0.0044,0.004,0.0229,0.0418,0.044,0.066,0.0718,0.0641,0.063,0.0791,0.0784,0.0856,0.0856,0.0856,0.0855,0.0855,0,-0.0003,-0.0053,-0.013,-0.0165,-0.0255,-0.0276,-0.0331,-0.0333,-0.0323,-0.0324,-0.0233,-0.0208,0.0072,0.0209,0.0397,0.0537,0.0649,0.0625,0.0648,0.0757,0.0746,0.08,0.0792,0.086,0.0859,0.0858,0.0857,0,0.0002,-0.0042,-0.0131,-0.0225,-0.0257,-0.0314,-0.0383,-0.0415,-0.0395,-0.0394,-0.0366,-0.0273,-0.0118,0.0091,0.0379,0.0478,0.0653,0.0657,0.0716,0.0743,0.0581,0.0569,0.0632,0.0626,0.0621,0.0617,0.0614,0,-0.0004,-0.0036,-0.0162,-0.0216,-0.0258,-0.0346,-0.0395,-0.043,-0.0444,-0.0441,-0.043,-0.0345,-0.0268,0.0005,0.0195,0.0467,0.0486,0.0594,0.0624,0.054,0.0558,0.0553,0.0547,0.0607,0.0605,0.0604,0.0603,0,-0.0015,-0.0037,-0.0122,-0.0215,-0.0293,-0.0407,-0.0467,-0.0468,-0.0483,-0.0499,-0.0449,-0.0365,-0.0271,-0.0062,0.0088,0.0295,0.0556,0.0546,0.056,0.0589,0.0511,0.0532,0.0531,0.0586,0.0589,0.059,0.0591,0,-0.0013,-0.0078,-0.0142,-0.0231,-0.0311,-0.0382,-0.0454,-0.0469,-0.0491,-0.0453,-0.0456,-0.0369,-0.0304,-0.0163,-0.0004,0.0138,0.02,0.033,0.0357,0.0376,0.0227,0.0085,0.004,0,0,0,0,0,0.0002,-0.0044,-0.0142,-0.0249,-0.0308,-0.033,-0.0444,-0.0499,-0.0508,-0.0462,-0.0442,-0.0363,-0.0224,-0.0193,-0.0077,-0.0103,0.0213,0.0033,0.0376,0.0495,0.0514,0.0359,0,0,0,0,0,0,-0.0002,-0.0059,-0.0136,-0.019,-0.0206,-0.0299,-0.0335,-0.039,-0.036,-0.0357,-0.0288,-0.0294,-0.0167,-0.0239,-0.0042,-0.0024,0.0213,0.0079,0.0081,0.0484,0.0501,0.0517,0.0364,0,0,0,0,0]}]]